Lid_Strength_Index
7 7 7 6 6 5 5 4 4 3 3 3 2 2 2 2 2 5 7 6 7 9 8 8 8 11 11 12 16 13 12 12 13 14 13 13 14 13 15 13 15 16 18 20 19 18 19 11 11 16 13 13 11 10
8 7 7 6 5 5 4 4 4 3 3 3 3 2 2 2 2 4 8 6 5 7 9 7 6 6 7 7 11 12 12 12 11 12 11 11 13 12 14 17 11 16 15 18 17 19 14 10 11 10 11 11 9 9
7 8 7 6 5 4 4 4 4 3 3 3 3 2 2 2 2 4 7 6 8 9 9 10 9 7 6 6 6 12 11 9 10 8 9 10 13 11 15 14 14 12 12 15 15 13 12 12 10 10 10 10 8 8
8 8 7 6 5 4 4 4 4 3 3 3 2 2 3 3 2 3 6 6 7 8 11 11 7 8 6 6 7 7 8 7 8 8 9 10 12 10 12 12 14 14 14 14 15 13 13 11 11 10 10 9 9 7
8 7 6 6 5 4 4 4 4 3 3 3 3 3 2 2 2 3 5 5 6 8 11 10 7 7 7 8 8 7 8 8 7 9 9 10 9 10 10 11 14 14 15 16 17 13 13 12 10 10 10 9 9 8
7 7 7 6 5 4 4 4 4 3 3 3 3 2 2 2 3 6 8 7 6 6 9 12 9 9 8 7 7 7 6 6 6 8 9 8 6 9 13 14 12 12 11 12 14 11 11 11 10 10 9 9 8 8
7 7 7 6 6 4 4 4 3 3 3 3 2 2 2 3 5 7 8 6 4 5 9 13 14 9 7 7 7 6 4 5 6 7 8 9 8 8 11 15 12 11 11 12 11 11 11 11 12 10 9 8 8 7
7 7 7 7 6 5 4 3 3 3 3 3 3 3 3 4 4 7 5 4 4 7 8 13 13 11 7 9 8 5 7 6 7 8 7 9 8 9 13 12 11 11 11 12 11 10 11 10 10 10 9 9 9 10
6 7 6 6 6 5 4 3 3 3 3 4 4 4 6 7 8 6 3 3 4 7 10 10 14 16 8 8 8 7 6 10 6 9 9 8 10 13 13 12 11 12 12 13 11 11 10 10 11 11 10 10 10 10
6 6 6 6 6 5 4 3 2 3 3 4 5 6 8 5 2 3 6 8 8 8 8 12 11 13 10 11 11 11 9 11 13 10 7 11 12 10 11 10 10 11 11 11 13 13 11 11 11 11 11 10 10 10
6 5 5 5 5 5 4 3 2 3 4 5 6 7 5 2 4 6 9 9 9 11 11 11 10 13 10 12 12 9 11 11 14 11 11 15 12 9 9 10 10 10 10 10 10 10 10 10 11 11 10 10 9 9
5 5 4 4 4 4 4 4 3 4 5 5 6 5 5 6 7 9 10 8 9 11 9 10 10 10 10 8 8 9 11 10 15 9 12 16 11 9 9 10 11 11 11 11 10 10 10 10 10 10 10 10 9 9
4 4 4 4 4 4 4 4 3 2 4 5 6 8 8 8 11 12 13 11 11 8 7 7 9 7 7 6 8 10 12 13 9 12 14 12 10 8 9 10 11 10 11 10 10 9 9 10 10 10 10 9 9 9
4 4 4 4 3 3 2 2 3 4 5 8 9 12 10 11 10 10 9 8 7 6 7 7 8 8 7 9 9 12 10 10 14 15 15 11 10 9 9 10 11 11 11 11 10 9 9 9 10 10 10 9 9 9
4 4 4 4 3 3 3 2 2 4 6 9 9 12 10 8 7 7 6 6 6 5 6 7 8 8 9 10 9 10 13 14 14 15 12 10 9 8 9 10 11 11 11 11 10 10 9 9 9 10 10 9 9 9
4 4 5 3 3 3 2 3 5 5 7 8 8 9 8 9 9 7 7 7 5 5 6 7 9 10 10 10 11 12 12 14 13 10 10 9 9 9 8 10 10 10 11 10 10 10 9 9 10 10 10 10 9 9
4 7 4 3 3 3 2 5 6 8 9 9 9 8 9 9 9 8 7 7 5 7 9 9 11 11 9 11 12 10 12 10 8 9 9 9 9 8 7 9 10 10 10 10 10 10 10 9 9 10 11 10 10 9
7 6 3 3 3 4 5 5 7 9 10 10 10 10 8 7 7 6 6 6 6 7 8 9 8 11 12 13 12 10 9 8 7 8 9 8 8 7 7 9 9 10 10 10 10 10 10 10 10 11 10 10 11 10
5 5 3 3 4 6 7 7 7 10 9 9 9 8 8 7 6 6 6 6 6 5 6 7 10 11 11 9 9 8 8 8 9 9 9 7 6 6 6 7 9 9 9 10 10 11 10 9 10 10 10 10 11 11
3 3 3 3 4 7 8 8 5 8 9 9 8 8 8 7 6 7 6 6 7 7 8 9 9 8 8 7 6 6 6 8 8 10 9 6 6 5 6 6 8 9 9 9 10 11 11 10 10 10 10 10 11 11
3 4 3 3 5 6 7 7 6 7 8 8 7 7 7 7 8 8 8 6 8 8 9 7 6 5 4 4 5 5 6 7 8 8 9 8 6 5 6 6 7 8 9 10 10 11 11 11 11 10 10 10 10 10
5 2 3 3 5 6 7 6 7 5 6 7 7 6 8 8 8 8 6 8 9 8 8 7 7 5 5 5 5 5 4 6 7 7 7 6 6 6 5 6 7 8 9 10 10 10 11 10 10 10 10 10 11 10
3 3 5 5 7 8 9 6 7 6 10 9 7 9 8 8 7 5 8 8 8 7 7 7 4 4 4 4 4 4 4 6 7 7 7 7 6 5 5 6 5 7 9 10 9 10 10 11 11 10 11 11 11 11
2 6 7 8 8 10 6 8 7 8 8 9 9 9 9 8 6 8 9 8 7 7 5 5 4 5 5 5 5 6 7 7 7 7 5 6 7 5 4 5 6 6 7 8 9 9 10 10 11 11 11 11 11 12
8 9 7 10 7 9 9 9 8 9 10 9 9 9 8 7 10 10 9 8 6 6 6 5 5 6 6 6 5 5 6 6 6 7 6 6 6 6 5 5 6 6 7 9 10 10 10 10 10 11 11 11 12 12
11 8 10 8 8 9 8 10 10 10 9 9 9 7 7 9 10 11 9 7 7 6 6 5 6 6 5 5 5 6 6 5 5 6 6 6 6 6 6 7 7 7 6 8 9 10 10 11 11 11 11 12 14 12
10 9 7 6 6 7 8 7 7 9 10 10 9 9 9 11 11 9 6 5 5 5 5 3 4 4 6 6 4 4 4 4 4 4 4 4 5 5 5 6 7 6 6 6 8 8 10 10 10 11 11 11 11 11
8 6 9 7 7 7 9 8 8 10 9 7 8 10 11 11 10 6 5 3 3 3 3 4 3 4 4 5 5 4 4 2 2 3 3 4 5 4 4 5 5 8 5 5 7 7 8 9 10 10 10 11 11 10
8 6 6 8 7 7 7 8 8 7 6 7 9 9 9 6 5 5 4 3 3 4 4 4 4 3 3 4 4 4 2 4 4 5 6 7 6 6 4 4 4 5 5 6 11 9 7 8 8 9 9 9 9 9
7 6 8 8 8 9 7 6 7 5 5 5 6 6 5 5 3 2 3 3 4 4 4 4 5 5 6 6 6 6 5 4 4 4 6 6 5 3 2 3 4 5 5 5 7 8 13 10 11 9 9 9 9 9
6 7 7 8 8 6 6 5 5 5 5 5 5 7 7 5 4 2 2 2 3 3 4 6 6 5 5 6 7 7 7 6 6 4 4 4 3 2 2 2 3 3 4 5 6 7 8 9 8 8 8 8 8 8
7 8 9 9 8 6 5 6 6 7 6 7 7 6 6 6 7 4 3 3 5 6 8 6 6 6 5 5 5 6 9 5 6 8 5 5 3 3 2 2 2 3 4 5 5 7 7 7 7 7 8 8 8 7
8 8 8 7 8 8 6 7 7 8 7 7 7 6 6 7 8 5 2 2 3 4 5 5 5 4 2 3 4 6 7 5 7 10 10 10 10 6 2 2 2 2 4 6 6 6 7 7 7 7 8 8 8 7